Location: Borowce
(50.8255°N, 19.6209°E)
Time: 22:56:19
(UTC+00:00)

Cosmos 1743 Rocket - Pass Details

Date: 19 May 2025
Orbit: 599 x 626 km, 82.6° (Epoch: 16 June)

Event Time Altitude Azimuth Distance (km) Brightness Sun altitude
Rises 21:42:30 0° 354° (N) 2,925 8.7 -18.2°
Reaches altitude 10° 21:44:51 10° 0° (N) 2,011 7.4 -18.2°
Maximum altitude 21:49:08 45° 74° (ENE) 850 4.2 -18.4°
Enters shadow 21:50:47 31° 126° (SE) 1,101 4.4 -18.4°
